Location: Bavegemberg
(50.9500°N, 3.8833°E)
Time: 12:29:42
(UTC+00:00)

Cosmos 841 Rocket - Pass Details

Date: 23 May 2024
Orbit: 744 x 770 km, 74.0° (Epoch: 18 June)

Event Time Altitude Azimuth Distance (km) Brightness Sun altitude
Rises 02:05:41 0° 328° (NNW) 3,233 7.1 -11.7°
Reaches altitude 10° 02:08:18 10° 318° (NW) 2,307 6.1 -11.4°
Maximum altitude 02:12:45 29° 259° (W) 1,382 4.5 -11.0°
Enters shadow 02:16:25 14° 206° (SSW) 2,054 5.1 -10.7°
